This is the latest recevied weather packets stored in our database for station/object IZ1RFL-3. If no packets are shown the sender has not sent any weather packets the latest 10 day(s).
| Time | Temp. | Humidity | Pressure | Rain* | Wind** | Luminosity | Snow |
|---|---|---|---|---|---|---|---|
| 1777945565 | 12.22° C | 82% | 1014.9 hPa | - | - | - | - |
| 1777944666 | 12.22° C | 82% | 1015.2 hPa | - | - | - | - |
| 1777943766 | 12.22° C | 81% | 1015.4 hPa | - | - | - | - |
| 1777942866 | 12.22° C | 81% | 1015.6 hPa | - | - | - | - |
| 1777941972 | 12.22° C | 80% | 1015.7 hPa | - | - | - | - |
| 1777941066 | 12.22° C | 79% | 1016 hPa | - | - | - | - |
| 1777940166 | 12.78° C | 79% | 1016.1 hPa | - | - | - | - |
| 1777939266 | 12.78° C | 78% | 1016.5 hPa | - | - | - | - |
| 1777938365 | 12.78° C | 77% | 1016.7 hPa | - | - | - | - |
| 1777937466 | 12.78° C | 71% | 1016.7 hPa | - | - | - | - |
| 1777936566 | 13.33° C | 70% | 1016.9 hPa | - | - | - | - |
| 1777935665 | 13.89° C | 69% | 1016.9 hPa | - | - | - | - |
| 1777934765 | 13.89° C | 69% | 1017.3 hPa | - | - | - | - |
| 1777933865 | 13.89° C | 68% | 1017.4 hPa | - | - | - | - |
| 1777932966 | 14.44° C | 65% | 1017.6 hPa | - | - | - | - |
| 1777932065 | 14.44° C | 66% | 1017.8 hPa | - | - | - | - |
| 1777931166 | 14.44° C | 64% | 1017.8 hPa | - | - | - | - |
| 1777930265 | 15° C | 63% | 1018 hPa | - | - | - | - |
| 1777929365 | 15° C | 59% | 1018 hPa | - | - | - | - |
| 1777928466 | 15° C | 61% | 1018 hPa | - | - | - | - |
| 1777927566 | 15° C | 62% | 1018.1 hPa | - | - | - | - |
| 1777926665 | 15° C | 61% | 1018.2 hPa | - | - | - | - |
| 1777925766 | 15.56° C | 59% | 1018.1 hPa | - | - | - | - |
| 1777924865 | 15.56° C | 58% | 1018.2 hPa | - | - | - | - |
| 1777923966 | 15.56° C | 58% | 1018 hPa | - | - | - | - |
* Rain since midnight (hover to see other rain measurements)
** Current wind speed in m/s (hover to see current wind gust speed)